Location: Marsån
(66.4167°N, 22.2833°E)
Time: 10:40:09
(UTC+00:00)

DMSP B5D1-3 - Pass Details

Date: 24 February 2024
Orbit: 763 x 777 km, 98.5° (Epoch: 16 April)

Event Time Altitude Azimuth Distance (km) Brightness Sun altitude
Rises 17:45:27 0° 20° (NNE) 3,267 7.7 -14.8°
Reaches altitude 10° 17:47:48 10° 24° (NNE) 2,338 6.9 -15.0°
Maximum altitude 17:52:56 64° 105° (ESE) 865 4.5 -15.5°
Drops below altitude 10° 17:58:03 10° 188° (S) 2,331 6.9 -16.0°
Sets 18:00:23 0° 191° (SSW) 3,256 7.7 -16.2°
